• In Italy
  • List of Countries
  • For 7 days
  • Water Temperature
  • Satellite Maps
  • Weather Map
  • Weather Widgets
  • user-avatar
    Login

    Hourly Weather Hjorring

    Today, 18 February, Sunday

    Time Temperature Precipitation Wind Pressure Humidity
    00:00 -2°C° 0 mm 4 mps 764 mmHg 93%
    01:00 -2°C° 0 mm 4 mps 765 mmHg 93%
    02:00 -2°C° 0 mm 5 mps 764 mmHg 93%
    03:00 -2°C° 0 mm 5 mps 764 mmHg 93%
    04:00 -2°C° 0 mm 5 mps 764 mmHg 92%
    05:00 -3°C° 0 mm 6 mps 764 mmHg 92%
    06:00 -3°C° 0 mm 6 mps 764 mmHg 91%
    07:00 -2°C° 0 mm 6 mps 763 mmHg 91%
    08:00 -2°C° 0.1 mm 7 mps 763 mmHg 89%
    09:00 -2°C° 0.1 mm 7 mps 763 mmHg 87%
    10:00 -1°C° 0.1 mm 7 mps 763 mmHg 85%
    11:00 -1°C° 0.4 mm 8 mps 763 mmHg 84%
    12:00 0°C° 0.4 mm 8 mps 763 mmHg 82%
    13:00 0°C° 0.4 mm 8 mps 762 mmHg 80%
    14:00 0°C° 0.3 mm 8 mps 762 mmHg 81%
    15:00 0°C° 0.3 mm 7 mps 762 mmHg 83%
    16:00 0°C° 0.3 mm 7 mps 762 mmHg 84%
    17:00 0°C° 0.2 mm 7 mps 762 mmHg 86%
    18:00 +1°C° 0.2 mm 6 mps 762 mmHg 87%
    19:00 +1°C° 0.2 mm 6 mps 761 mmHg 89%
    20:00 -1°C° 0.1 mm 6 mps 761 mmHg 90%
    21:00 0°C° 0.1 mm 5 mps 761 mmHg 91%
    22:00 0°C° 0.1 mm 5 mps 761 mmHg 92%
    23:00 0°C° 0.3 mm 5 mps 761 mmHg 93%

    Tomorrow, 19 February, Monday

    Time Temperature Precipitation Wind Pressure Humidity
    00:00 0°C° 0.3 mm 4 mps 761 mmHg 93%
    01:00 0°C° 0.3 mm 4 mps 761 mmHg 94%
    02:00 0°C° 0.3 mm 4 mps 761 mmHg 95%
    03:00 +1°C° 0.3 mm 3 mps 760 mmHg 96%
    04:00 +1°C° 0.3 mm 3 mps 760 mmHg 97%
    05:00 0°C° 0.1 mm 4 mps 760 mmHg 96%
    06:00 0°C° 0.1 mm 4 mps 760 mmHg 96%
    07:00 0°C° 0.1 mm 4 mps 760 mmHg 95%
    08:00 0°C° 0.1 mm 4 mps 760 mmHg 93%
    09:00 0°C° 0.1 mm 5 mps 760 mmHg 92%
    10:00 0°C° 0.1 mm 5 mps 760 mmHg 90%
    11:00 +1°C° 0 mm 5 mps 761 mmHg 87%
    12:00 +1°C° 0 mm 5 mps 761 mmHg 85%
    13:00 +1°C° 0 mm 5 mps 761 mmHg 82%
    14:00 +1°C° 0.1 mm 6 mps 761 mmHg 83%
    15:00 +1°C° 0.1 mm 6 mps 761 mmHg 84%
    16:00 +1°C° 0.1 mm 6 mps 761 mmHg 85%
    17:00 0°C° 0.1 mm 7 mps 761 mmHg 86%
    18:00 -1°C° 0.1 mm 8 mps 761 mmHg 87%
    19:00 -1°C° 0.1 mm 9 mps 762 mmHg 89%
    20:00 -1°C° 0.1 mm 9 mps 762 mmHg 89%
    21:00 -1°C° 0.1 mm 9 mps 762 mmHg 88%
    22:00 -2°C° 0.1 mm 10 mps 762 mmHg 88%
    23:00 -1°C° 0.1 mm 9 mps 762 mmHg 88%

    Day after tomorrow, 20 February, Tuesday

    Time Temperature Precipitation Wind Pressure Humidity
    00:00 -1°C° 0.1 mm 9 mps 762 mmHg 87%
    01:00 -1°C° 0.1 mm 9 mps 763 mmHg 86%
    02:00 -3°C° 0.1 mm 9 mps 763 mmHg 86%
    03:00 -3°C° 0.1 mm 9 mps 763 mmHg 87%
    04:00 -2°C° 0.1 mm 8 mps 763 mmHg 87%
    05:00 -2°C° 0.1 mm 8 mps 763 mmHg 87%
    06:00 -2°C° 0.1 mm 8 mps 763 mmHg 88%
    07:00 -2°C° 0.1 mm 8 mps 763 mmHg 88%
    08:00 -2°C° 0.1 mm 8 mps 764 mmHg 88%
    09:00 -2°C° 0.1 mm 8 mps 764 mmHg 88%
    10:00 -2°C° 0.1 mm 7 mps 764 mmHg 88%
    11:00 -2°C° 0.1 mm 7 mps 765 mmHg 87%
    12:00 -1°C° 0.1 mm 6 mps 765 mmHg 86%
    13:00 -1°C° 0.1 mm 6 mps 765 mmHg 85%
    14:00 0°C° 0.1 mm 5 mps 765 mmHg 84%
    15:00 0°C° 0.1 mm 5 mps 765 mmHg 84%
    16:00 0°C° 0.1 mm 5 mps 765 mmHg 84%
    17:00 -1°C° 0 mm 4 mps 766 mmHg 86%
    18:00 -1°C° 0 mm 4 mps 766 mmHg 87%
    19:00 -1°C° 0 mm 4 mps 766 mmHg 88%
    20:00 0°C° 0 mm 3 mps 766 mmHg 89%
    21:00 -1°C° 0 mm 2 mps 766 mmHg 89%
    22:00 -1°C° 0 mm 2 mps 766 mmHg 89%
    23:00 -1°C° 0 mm 2 mps 766 mmHg 90%

    21 February, Wednesday

    Time Temperature Precipitation Wind Pressure Humidity
    00:00 -1°C° 0 mm 2 mps 766 mmHg 90%
    01:00 -1°C° 0 mm 2 mps 766 mmHg 91%
    02:00 -1°C° 0.1 mm 2 mps 766 mmHg 90%
    03:00 -1°C° 0.1 mm 3 mps 765 mmHg 90%
    04:00 -1°C° 0.1 mm 3 mps 765 mmHg 90%
    05:00 -1°C° 0.3 mm 3 mps 765 mmHg 90%
    06:00 -1°C° 0.3 mm 4 mps 764 mmHg 90%
    07:00 -1°C° 0.3 mm 4 mps 764 mmHg 90%
    08:00 -1°C° 0.2 mm 4 mps 764 mmHg 90%
    09:00 -1°C° 0.2 mm 4 mps 764 mmHg 90%
    10:00 0°C° 0.2 mm 3 mps 764 mmHg 90%
    11:00 +1°C° 0.1 mm 3 mps 764 mmHg 90%
    12:00 +1°C° 0.1 mm 3 mps 764 mmHg 89%
    13:00 +1°C° 0.1 mm 3 mps 764 mmHg 89%
    14:00 0°C° 0 mm 4 mps 764 mmHg 88%
    15:00 0°C° 0 mm 4 mps 764 mmHg 88%
    16:00 -1°C° 0 mm 5 mps 764 mmHg 87%
    17:00 -1°C° 0 mm 5 mps 764 mmHg 88%
    18:00 -2°C° 0 mm 5 mps 764 mmHg 89%
    19:00 -2°C° 0 mm 5 mps 765 mmHg 89%
    20:00 -2°C° 0 mm 4 mps 765 mmHg 89%
    21:00 -2°C° 0 mm 4 mps 765 mmHg 89%
    22:00 -2°C° 0 mm 4 mps 766 mmHg 89%
    23:00 -2°C° 0 mm 3 mps 766 mmHg 89%

    22 February, Thursday

    Time Temperature Precipitation Wind Pressure Humidity
    00:00 -2°C° 0 mm 3 mps 766 mmHg 89%
    01:00 -2°C° 0 mm 3 mps 766 mmHg 89%
    02:00 -3°C° 0 mm 4 mps 766 mmHg 88%
    03:00 -3°C° 0 mm 4 mps 766 mmHg 88%
    04:00 -4°C° 0 mm 5 mps 767 mmHg 87%
    05:00 -4°C° 0 mm 6 mps 767 mmHg 85%
    06:00 -4°C° 0 mm 7 mps 767 mmHg 83%
    07:00 -5°C° 0 mm 8 mps 767 mmHg 80%
    08:00 -5°C° 0 mm 8 mps 767 mmHg 78%
    09:00 -5°C° 0 mm 9 mps 767 mmHg 76%
    10:00 -6°C° 0 mm 9 mps 767 mmHg 74%
    11:00 -6°C° 0 mm 9 mps 767 mmHg 74%
    12:00 -5°C° 0 mm 9 mps 767 mmHg 74%
    13:00 -5°C° 0 mm 10 mps 767 mmHg 73%
    14:00 -5°C° 0 mm 10 mps 767 mmHg 73%
    15:00 -5°C° 0 mm 10 mps 767 mmHg 72%
    16:00 -5°C° 0 mm 10 mps 767 mmHg 72%
    17:00 -7°C° 0 mm 10 mps 767 mmHg 72%
    18:00 -7°C° 0 mm 10 mps 767 mmHg 73%
    19:00 -7°C° 0 mm 10 mps 767 mmHg 73%
    20:00 -8°C° 0 mm 10 mps 767 mmHg 73%
    21:00 -8°C° 0 mm 9 mps 767 mmHg 72%
    22:00 -8°C° 0 mm 9 mps 767 mmHg 72%
    23:00 -8°C° 0 mm 9 mps 767 mmHg 70%

    23 February, Friday

    Time Temperature Precipitation Wind Pressure Humidity
    00:00 -9°C° 0 mm 9 mps 767 mmHg 68%
    01:00 -8°C° 0 mm 8 mps 767 mmHg 67%
    02:00 -8°C° 0 mm 8 mps 767 mmHg 67%
    03:00 -8°C° 0 mm 8 mps 766 mmHg 67%
    04:00 -8°C° 0 mm 8 mps 766 mmHg 67%
    05:00 -8°C° 0 mm 8 mps 766 mmHg 67%
    06:00 -8°C° 0 mm 8 mps 766 mmHg 68%
    07:00 -10°C° 0 mm 8 mps 765 mmHg 68%
    08:00 -8°C° 0 mm 8 mps 765 mmHg 67%
    09:00 -8°C° 0 mm 8 mps 765 mmHg 66%
    10:00 -8°C° 0 mm 8 mps 765 mmHg 64%
    11:00 -8°C° 0 mm 8 mps 764 mmHg 63%
    12:00 -8°C° 0 mm 8 mps 764 mmHg 62%
    13:00 -7°C° 0 mm 8 mps 764 mmHg 61%
    14:00 -8°C° 0 mm 8 mps 764 mmHg 61%
    15:00 -8°C° 0 mm 8 mps 763 mmHg 62%
    16:00 -8°C° 0 mm 8 mps 763 mmHg 62%
    17:00 -8°C° 0.1 mm 8 mps 763 mmHg 63%
    18:00 -8°C° 0.1 mm 8 mps 763 mmHg 65%
    19:00 -10°C° 0.1 mm 8 mps 763 mmHg 67%
    20:00 -10°C° 0.1 mm 8 mps 763 mmHg 66%
    21:00 -9°C° 0.1 mm 7 mps 763 mmHg 65%
    22:00 -9°C° 0.1 mm 7 mps 763 mmHg 65%
    23:00 -9°C° 0.1 mm 7 mps 763 mmHg 65%
    Show more